Location: Fort Hays State University
(38.8712°N, 99.3432°W)
Time: 10:26:34
(UTC-05:00)

Cosmos 2279 Rocket - Visible Passes

Search period start: 17 April 2014 00:00
Search period end: 27 April 2014 00:00
Orbit: 965 x 979 km, 82.9° (Epoch: 16 April)

Date Brightness Start Highest point End Pass type
(mag) Time Alt. Az. Time Alt. Az. Time Alt. Az.
17 Apr 6.6 03:29:38 10° E 03:31:00 11° ENE 03:32:21 10° ENE visible
17 Apr 4.0 05:10:12 16° S 05:15:16 87° E 05:21:30 10° N visible
18 Apr 6.0 03:50:28 10° SE 03:54:56 21° E 03:59:25 10° NE visible
18 Apr 4.2 05:35:02 17° SSW 05:39:45 52° W 05:45:48 10° N visible
19 Apr 5.1 04:15:10 19° SE 04:19:03 39° E 04:24:43 10° NNE visible
19 Apr 4.9 05:59:48 13° SW 06:04:24 29° WNW 06:09:43 10° NNW visible
20 Apr 4.1 04:39:53 28° S 04:43:19 71° E 04:49:29 10° NNE visible
20 Apr 5.5 06:25:33 10° WSW 06:29:14 16° WNW 06:32:57 10° NNW visible
21 Apr 6.2 03:19:56 12° ESE 03:23:07 17° E 03:26:53 10° NE visible
21 Apr 4.0 05:04:33 30° SSW 05:07:44 65° W 05:13:54 10° N visible
22 Apr 5.4 03:44:34 23° SE 03:47:10 31° E 03:52:30 10° NNE visible
22 Apr 4.6 05:29:11 22° SW 05:32:19 36° WNW 05:37:59 10° N visible
23 Apr 4.4 04:09:09 38° SSE 04:11:22 57° E 04:17:26 10° NNE visible
23 Apr 5.3 05:53:46 14° WSW 05:57:05 20° WNW 06:01:32 10° NNW visible
24 Apr 6.3 02:49:06 11° ESE 02:51:19 13° E 02:54:04 10° NE visible
24 Apr 3.9 04:33:43 46° SSW 04:35:44 80° W 04:41:58 10° N visible
24 Apr 5.9 06:20:53 10° WNW 06:22:03 11° WNW 06:23:14 10° NW visible
25 Apr 5.6 03:13:38 22° ESE 03:15:18 25° E 03:20:13 10° NNE visible
25 Apr 4.4 04:58:15 34° WSW 05:00:15 44° WNW 05:06:10 10° N visible
26 Apr 4.7 03:38:09 40° ESE 03:39:27 46° E 03:45:20 10° NNE visible
26 Apr 5.1 05:22:45 21° WSW 05:24:57 25° WNW 05:29:57 10° NNW visible
